Home > Weather > Wesseling > Past weeks

Flag for Germany Past Weather in Wesseling, North Rhine-Westphalia, Germany — Yesterday and Last 2 Weeks

Now
93 °F

Passing clouds.


Feels Like: 94 °F
Forecast: 66 / 89 °F
Wind: 7 mph from Southeast

Location: Koeln / Bonn

Current Time: Aug 27, 2016 at 3:44:09 PM

Latest Report: Aug 27, 2016 at 3:20 PM


Visibility: N/A

Pressure: 30.01 "Hg

Humidity: 36%

Dew Point: 63 °F

Location of WesselingLocation

Past Weather in Wesseling — Graph

°F

Wesseling Temperature Yesterday

Maximum temperature yesterday: 93 °F (at 2:20 PM)
Minimum temperature yesterday: 64 °F (at 3:20 AM)
Average temperature yesterday: 79 °F

High & Low Weather Summary for the Past Weeks

 TemperatureHumidityPressure
High93 °F (Aug 26, 2:20 PM)100% (Aug 13, 2:20 AM)30.36 "Hg (Aug 13, 2:20 AM)
Low48 °F (Aug 16, 6:50 AM)28% (Aug 25, 4:50 PM)29.77 "Hg (Aug 18, 2:20 PM)
Average68 °F71%30.07 "Hg
* Reported Aug 12 2:20 PM — Aug 27 2:20 PM, Wesseling, Weather by CustomWeather, © 2016

Note: Actual official high and low records may vary slightly from our data, if they occured in-between our weather recording intervals... More about our weather records

Advertising

Wesseling Weather History for the Previous 24 Hours

Scroll right to see more
 ConditionsComfort  
Time TempWeatherWind HumidityBarometerVisibility
2:20 PM
Sat, Aug 27
91 °FSunny.5 mph49%30.04 "Hg10 mi
1:50 PM90 °FPassing clouds.5 mph52%30.04 "HgN/A
1:20 PM88 °FPassing clouds.5 mph52%30.04 "HgN/A
12:50 PM86 °FPassing clouds.2 mph55%30.04 "HgN/A
12:20 PM84 °FPassing clouds.3 mph58%30.07 "HgN/A
11:50 AM82 °FPassing clouds.6 mph62%30.07 "HgN/A
11:20 AM81 °FPassing clouds.2 mph66%30.07 "HgN/A
10:50 AM77 °FClear.3 mph74%30.07 "Hg6 mi
10:20 AM75 °FClear.3 mph78%30.09 "Hg5 mi
9:50 AM73 °FClear.5 mph83%30.09 "Hg4 mi
9:20 AM70 °FClear.6 mph88%30.09 "Hg4 mi
8:50 AM70 °FClear.3 mph88%30.09 "Hg4 mi
8:20 AM68 °FClear.3 mph94%30.07 "Hg4 mi
7:50 AM66 °FFog.2 mph100%30.07 "Hg3 mi
7:20 AM66 °FFog.2 mph94%30.07 "Hg2 mi
6:50 AM64 °FFog.1 mph100%30.07 "Hg2 mi
6:20 AM64 °FFog.2 mph100%30.07 "Hg4 mi
5:50 AM64 °FFog.1 mph100%30.07 "Hg5 mi
5:20 AM66 °FFog.2 mph100%30.07 "HgN/A
4:50 AM64 °FFog.No wind100%30.07 "HgN/A
4:20 AM66 °FFog.3 mph100%30.07 "HgN/A
3:50 AM66 °FFog.2 mph100%30.07 "HgN/A
3:20 AM68 °FClear.2 mph94%30.07 "Hg10 mi
2:50 AM68 °FClear.5 mph94%30.07 "Hg10 mi
2:20 AM70 °FClear.6 mph88%30.07 "Hg10 mi
1:50 AM72 °FClear.6 mph88%30.07 "Hg10 mi
1:20 AM72 °FPassing clouds.3 mph88%30.07 "HgN/A
12:50 AM72 °FClear.6 mph88%30.07 "Hg10 mi
12:20 AM72 °FPassing clouds.5 mph88%30.07 "HgN/A
11:50 PM
Fri, Aug 26
72 °FClear.2 mph88%30.07 "Hg10 mi
11:20 PM73 °FClear.2 mph89%30.04 "Hg10 mi
10:50 PM73 °FClear.2 mph89%30.04 "Hg10 mi
10:20 PM75 °FClear.2 mph83%30.04 "Hg10 mi
9:50 PM75 °FClear.1 mph83%30.04 "Hg10 mi
9:20 PM77 °FPassing clouds.5 mph79%30.04 "HgN/A
8:50 PM79 °FSunny.6 mph74%30.04 "Hg10 mi
8:20 PM81 °FSunny.7 mph70%30.01 "Hg10 mi
7:50 PM84 °FSunny.3 mph62%30.01 "Hg10 mi
7:20 PM86 °FSunny.3 mph59%30.01 "Hg10 mi
6:50 PM88 °FSunny.5 mph49%30.01 "Hg10 mi
6:20 PM90 °FSunny.6 mph43%30.01 "Hg10 mi
5:50 PM91 °FSunny.7 mph44%30.01 "Hg10 mi
5:20 PM91 °FSunny.5 mph38%30.01 "Hg10 mi
4:50 PM93 °FPassing clouds.3 mph39%30.01 "HgN/A
4:20 PM93 °FSunny.5 mph39%30.01 "Hg10 mi
3:50 PM91 °FPassing clouds.5 mph38%30.01 "HgN/A
3:20 PM91 °FPassing clouds.6 mph38%30.01 "HgN/A
Weather by CustomWeather, © 2016

See weather overviewHow to use our weather pages